Total_Precipitation_Accumulation
1.46 1.38 1.38 1.35 1.32 1.32 1.38 1.55 1.85 1.69 1.15 0.88 0.91 0.97 1.05 1.15 1.18 1.09 1.05 1.25 1.34 1.40 1.49 1.57 1.67 1.84 2.17 2.71 3.36 4.30 4.95 4.65 3.84 3.26 3.21 3.58 4.06 4.55
1.57 1.55 1.42 1.34 1.37 1.41 1.48 1.49 1.58 1.73 1.43 0.87 0.79 0.88 1.03 1.22 1.31 1.11 1.07 1.26 1.31 1.38 1.39 1.40 1.54 1.71 1.93 2.22 2.62 3.22 4.16 4.69 4.51 3.99 3.59 3.71 3.99 4.42
1.56 1.59 1.48 1.38 1.49 1.53 1.60 1.63 1.57 1.61 1.64 1.08 0.84 0.91 1.15 1.30 1.37 1.23 1.19 1.19 1.20 1.33 1.39 1.40 1.44 1.62 1.80 1.99 2.19 2.57 3.24 4.00 4.49 4.56 4.26 4.01 4.04 4.13
1.55 1.58 1.56 1.48 1.49 1.52 1.63 1.62 1.54 1.48 1.58 1.39 1.09 1.08 1.22 1.37 1.42 1.38 1.34 1.29 1.16 1.26 1.35 1.45 1.44 1.56 1.76 1.87 1.98 2.20 2.57 3.12 3.71 4.22 4.39 4.10 3.97 4.00
1.50 1.55 1.58 1.58 1.50 1.45 1.54 1.58 1.51 1.47 1.51 1.54 1.30 1.17 1.27 1.43 1.59 1.62 1.56 1.53 1.36 1.32 1.34 1.44 1.54 1.56 1.68 1.81 1.92 2.04 2.18 2.36 2.77 3.43 4.07 4.16 3.96 3.94
1.41 1.42 1.50 1.64 1.65 1.63 1.64 1.60 1.62 1.71 1.69 1.68 1.51 1.35 1.38 1.52 1.70 1.80 1.83 1.76 1.66 1.48 1.49 1.55 1.63 1.67 1.65 1.67 1.67 1.73 1.87 2.17 2.52 2.98 3.47 3.88 3.92 3.87
1.35 1.28 1.37 1.64 1.86 2.03 2.07 1.90 1.91 2.08 2.05 2.00 1.86 1.65 1.52 1.60 1.74 1.75 1.86 1.82 1.81 1.69 1.58 1.58 1.57 1.54 1.54 1.56 1.59 1.61 1.68 1.90 2.19 2.51 2.91 3.29 3.58 3.75
1.41 1.27 1.30 1.58 1.77 1.95 2.10 2.06 2.07 2.25 2.36 2.31 2.13 1.85 1.51 1.40 1.50 1.75 2.00 2.21 2.21 1.90 1.71 1.73 1.56 1.61 1.55 1.44 1.59 1.65 1.68 1.83 2.04 2.24 2.50 2.79 3.11 3.48
1.33 1.30 1.33 1.43 1.60 1.62 1.79 1.86 1.84 2.00 2.23 2.33 2.31 1.86 1.61 1.51 1.75 2.04 2.10 2.22 2.12 2.02 2.02 2.12 1.79 1.71 1.60 1.60 1.71 1.66 1.72 1.79 1.91 2.06 2.26 2.46 2.71 3.06
1.40 1.31 1.25 1.29 1.44 1.63 1.73 1.73 1.63 1.66 1.88 2.05 2.25 2.05 1.83 1.86 2.21 2.53 2.65 2.64 2.36 2.19 2.15 2.43 2.05 1.82 1.71 1.68 1.75 1.64 1.64 1.70 1.78 1.87 2.02 2.22 2.42 2.69
1.47 1.38 1.25 1.20 1.44 1.65 1.61 1.58 1.50 1.52 1.65 1.87 2.03 2.10 2.13 2.28 2.61 3.06 3.26 3.26 2.97 2.57 2.31 2.38 2.25 2.08 2.07 2.06 1.99 1.86 1.66 1.61 1.66 1.73 1.81 1.94 2.14 2.48
1.48 1.42 1.48 1.44 1.57 1.59 1.47 1.55 1.67 1.53 1.44 1.49 1.56 1.61 1.65 1.81 2.26 2.73 3.13 3.30 3.07 2.95 2.53 2.34 2.32 2.37 2.83 2.63 2.23 1.91 1.73 1.67 1.62 1.62 1.64 1.69 1.85 1.96
1.52 1.49 1.43 1.60 1.62 1.58 1.54 1.50 1.70 1.60 1.48 1.55 1.53 1.46 1.46 1.58 1.77 2.11 2.66 3.12 3.17 2.92 2.52 2.60 2.74 2.42 2.66 2.77 2.48 2.07 1.72 1.60 1.53 1.57 1.59 1.60 1.64 1.65
1.51 1.40 1.36 1.55 1.59 1.62 1.57 1.62 1.68 1.65 1.54 1.58 1.51 1.41 1.41 1.52 1.67 1.88 2.17 2.51 2.70 2.65 2.42 2.62 3.07 2.70 2.47 2.34 2.33 2.25 1.89 1.67 1.50 1.46 1.46 1.69 1.75 1.74
1.66 1.68 1.61 1.67 1.68 1.57 1.54 1.59 1.53 1.44 1.51 1.57 1.48 1.31 1.26 1.38 1.50 1.63 1.76 1.97 2.19 2.28 2.34 2.44 2.73 2.74 2.61 2.41 2.06 1.94 1.95 1.96 1.68 1.52 1.48 1.51 1.54 1.56
1.79 1.77 1.74 1.76 1.71 1.63 1.56 1.43 1.32 1.33 1.44 1.46 1.38 1.26 1.18 1.24 1.38 1.49 1.63 1.75 2.05 2.22 2.27 2.39 2.64 2.91 2.88 2.28 2.01 1.83 1.66 1.97 1.92 1.65 1.54 1.52 1.44 1.33
1.84 1.89 1.81 1.76 1.74 1.60 1.41 1.26 1.22 1.29 1.35 1.28 1.28 1.30 1.27 1.26 1.28 1.33 1.53 1.67 1.91 2.04 2.21 2.45 2.68 2.84 2.93 2.68 2.37 1.92 1.61 1.61 1.69 1.61 1.56 1.63 1.64 1.48
1.93 1.89 1.70 1.50 1.43 1.36 1.28 1.21 1.17 1.18 1.17 1.20 1.26 1.27 1.26 1.27 1.28 1.27 1.40 1.59 1.76 1.84 1.95 2.19 2.54 2.84 3.03 3.07 2.66 2.06 1.71 1.64 1.71 1.67 1.55 1.61 1.77 1.69
1.70 1.53 1.40 1.32 1.27 1.21 1.15 1.13 1.13 1.08 1.08 1.17 1.23 1.23 1.20 1.23 1.28 1.30 1.35 1.49 1.62 1.75 1.87 1.98 2.27 2.66 2.88 3.04 3.04 2.41 1.94 1.76 1.80 1.96 1.82 1.61 1.64 1.71
1.36 1.35 1.31 1.27 1.28 1.29 1.24 1.18 1.13 1.11 1.13 1.14 1.16 1.17 1.20 1.27 1.29 1.27 1.29 1.43 1.54 1.65 1.79 1.92 2.16 2.47 2.69 2.64 2.77 2.73 2.44 2.05 1.88 2.07 2.05 1.82 1.73 1.85
1.24 1.26 1.26 1.28 1.31 1.32 1.26 1.21 1.18 1.14 1.09 1.09 1.08 1.07 1.11 1.21 1.23 1.17 1.23 1.36 1.48 1.57 1.70 1.82 1.99 2.20 2.36 2.42 2.45 2.46 2.59 2.55 2.13 2.03 2.05 2.04 1.98 1.98
1.21 1.25 1.24 1.27 1.32 1.34 1.29 1.23 1.21 1.15 1.09 1.07 1.03 1.02 1.03 1.12 1.18 1.17 1.23 1.31 1.35 1.44 1.58 1.70 1.80 2.00 2.24 2.45 2.42 2.30 2.44 2.60 2.55 2.29 2.09 1.99 2.05 2.16
1.31 1.31 1.31 1.29 1.28 1.29 1.28 1.22 1.18 1.13 1.08 1.06 1.03 1.02 1.04 1.10 1.11 1.16 1.21 1.23 1.27 1.33 1.45 1.66 1.82 1.96 2.18 2.33 2.39 2.27 2.23 2.35 2.37 2.36 2.46 2.17 1.77 1.61